Location: Newark
(46.1292°N, 1.0086°W)
Time: 16:05:26
(UTC+00:00)

Vanguard 3 - Pass Details

Date: 23 November 2019
Orbit: 508 x 3263 km, 33.3° (Epoch: 14 December)

Event Time Altitude Azimuth Distance (km) Brightness Sun altitude
Rises 11:42:45 0° 218° (SW) 6,187 12.4 23.5°
Reaches altitude 10° 11:46:53 10° 211° (SSW) 5,485 12.5 23.5°
Maximum altitude 12:02:24 39° 151° (SSE) 4,230 12.0 23.5°
Drops below altitude 10° 12:19:14 10° 92° (E) 5,970 11.6 23.2°
Sets 12:23:56 0° 85° (E) 6,770 11.7 23.1°
